Time,TemperatureF,DewpointF,PressureIn,WindDirection,WindDirectionDegrees,WindSpeedMPH,WindSpeedGustMPH,Humidity,HourlyPrecipIn,Conditions,Clouds,dailyrainin,SoftwareType,DateUTC
2013-04-09 00:02:00,16.0,15.0,30.03,NNE,15,5.0,-999.0,97,-99.99,,,-99.99,,2013-04-09 06:02:00,
2013-04-09 00:12:00,16.0,15.0,30.01,NNE,14,5.0,-999.0,96,-99.99,,,-99.99,,2013-04-09 06:12:00,
2013-04-09 00:22:00,15.0,14.0,30.02,North,11,5.0,-999.0,96,-99.99,,,-99.99,,2013-04-09 06:22:00,
2013-04-09 00:32:00,15.0,14.0,30.02,North,9,6.0,-999.0,96,-99.99,,,-99.99,,2013-04-09 06:32:00,
2013-04-09 00:42:00,14.0,13.0,30.03,North,8,5.0,-999.0,96,-99.99,,,-99.99,,2013-04-09 06:42:00,
2013-04-09 00:52:00,13.0,12.0,30.05,NNE,12,6.0,-999.0,95,-99.99,,,-99.99,,2013-04-09 06:52:00,
2013-04-09 01:02:00,13.0,12.0,30.06,East,92,4.0,-999.0,95,-99.99,,,-99.99,,2013-04-09 07:02:00,
2013-04-09 01:13:00,13.0,12.0,30.04,North,3,6.0,-999.0,94,-99.99,,,-99.99,,2013-04-09 07:13:00,
2013-04-09 01:22:00,13.0,12.0,30.06,North,7,5.0,-999.0,94,-99.99,,,-99.99,,2013-04-09 07:22:00,
2013-04-09 01:32:00,13.0,12.0,30.05,North,11,6.0,-999.0,94,-99.99,,,-99.99,,2013-04-09 07:32:00,
2013-04-09 01:42:00,13.0,12.0,30.06,East,96,4.0,-999.0,94,-99.99,,,-99.99,,2013-04-09 07:42:00,
2013-04-09 01:52:00,13.0,12.0,30.05,East,87,5.0,-999.0,94,-99.99,,,-99.99,,2013-04-09 07:52:00,
2013-04-09 02:03:00,12.0,11.0,30.08,North,6,5.0,-999.0,94,-99.99,,,-99.99,,2013-04-09 08:03:00,
2013-04-09 02:12:00,12.0,10.0,30.06,North,9,6.0,-999.0,93,-99.99,,,-99.99,,2013-04-09 08:12:00,
2013-04-09 02:22:00,12.0,10.0,30.07,North,7,4.0,-999.0,93,-99.99,,,-99.99,,2013-04-09 08:22:00,
2013-04-09 02:32:00,12.0,10.0,30.08,North,7,5.0,-999.0,93,-99.99,,,-99.99,,2013-04-09 08:32:00,
2013-04-09 02:42:00,12.0,10.0,30.08,NNE,12,5.0,-999.0,93,-99.99,,,-99.99,,2013-04-09 08:42:00,
2013-04-09 02:52:00,11.0,10.0,30.11,East,92,4.0,-999.0,93,-99.99,,,-99.99,,2013-04-09 08:52:00,
2013-04-09 03:02:00,11.0,10.0,30.07,East,91,4.0,-999.0,93,-99.99,,,-99.99,,2013-04-09 09:02:00,
2013-04-09 03:12:00,11.0,10.0,30.07,North,5,4.0,-999.0,93,-99.99,,,-99.99,,2013-04-09 09:12:00,
2013-04-09 03:22:00,11.0,9.0,30.07,North,10,5.0,-999.0,93,-99.99,,,-99.99,,2013-04-09 09:22:00,
2013-04-09 03:33:00,11.0,9.0,30.08,North,7,5.0,-999.0,93,-99.99,,,-99.99,,2013-04-09 09:33:00,
2013-04-09 03:43:00,11.0,9.0,30.06,North,11,5.0,-999.0,93,-99.99,,,-99.99,,2013-04-09 09:43:00,
2013-04-09 03:52:00,11.0,9.0,30.05,North,1,6.0,-999.0,92,-99.99,,,-99.99,,2013-04-09 09:52:00,
2013-04-09 04:03:00,10.0,9.0,30.10,WNW,293,6.0,-999.0,92,-99.99,,,-99.99,,2013-04-09 10:03:00,
2013-04-09 04:13:00,10.0,9.0,30.12,North,7,5.0,-999.0,92,-99.99,,,-99.99,,2013-04-09 10:13:00,
2013-04-09 04:23:00,11.0,9.0,30.11,North,10,5.0,-999.0,92,-99.99,,,-99.99,,2013-04-09 10:23:00,
2013-04-09 04:33:00,11.0,9.0,30.13,West,261,4.0,-999.0,92,-99.99,,,-99.99,,2013-04-09 10:33:00,
2013-04-09 04:43:00,10.0,8.0,30.12,ENE,67,5.0,-999.0,92,-99.99,,,-99.99,,2013-04-09 10:43:00,
2013-04-09 04:52:00,10.0,8.0,30.11,East,98,5.0,-999.0,92,-99.99,,,-99.99,,2013-04-09 10:52:00,
2013-04-09 05:02:00,10.0,8.0,30.10,West,259,5.0,-999.0,92,-99.99,,,-99.99,,2013-04-09 11:02:00,
2013-04-09 05:12:00,10.0,8.0,30.16,North,-999,5.0,-999.0,92,-99.99,,,-99.99,,2013-04-09 11:12:00,
2013-04-09 05:22:00,10.0,8.0,30.13,South,172,5.0,-999.0,92,-99.99,,,-99.99,,2013-04-09 11:22:00,
2013-04-09 05:32:00,10.0,8.0,30.16,West,259,5.0,-999.0,91,-99.99,,,-99.99,,2013-04-09 11:32:00,
2013-04-09 05:42:00,10.0,8.0,30.15,West,259,5.0,-999.0,92,-99.99,,,-99.99,,2013-04-09 11:42:00,
2013-04-09 05:52:00,10.0,8.0,30.15,East,95,5.0,-999.0,91,-99.99,,,-99.99,,2013-04-09 11:52:00,
2013-04-09 06:02:00,9.0,7.0,30.16,South,173,6.0,-999.0,91,-99.99,,,-99.99,,2013-04-09 12:02:00,
2013-04-09 06:12:00,9.0,7.0,30.17,West,265,5.0,-999.0,91,-99.99,,,-99.99,,2013-04-09 12:12:00,
2013-04-09 06:22:00,9.0,7.0,30.15,SSW,193,5.0,-999.0,91,-99.99,,,-99.99,,2013-04-09 12:22:00,
2013-04-09 06:32:00,9.0,7.0,30.16,East,87,5.0,-999.0,91,-99.99,,,-99.99,,2013-04-09 12:32:00,
2013-04-09 06:42:00,9.0,7.0,30.16,NE,37,5.0,-999.0,91,-99.99,,,-99.99,,2013-04-09 12:42:00,
2013-04-09 06:52:00,9.0,7.0,30.17,South,172,5.0,-999.0,91,-99.99,,,-99.99,,2013-04-09 12:52:00,
2013-04-09 07:02:00,9.0,7.0,30.19,West,259,4.0,-999.0,91,-99.99,,,-99.99,,2013-04-09 13:02:00,
2013-04-09 07:12:00,9.0,7.0,30.18,West,262,6.0,-999.0,91,-99.99,,,-99.99,,2013-04-09 13:12:00,
2013-04-09 07:23:00,9.0,7.0,30.20,WSW,258,6.0,-999.0,91,-99.99,,,-99.99,,2013-04-09 13:23:00,
2013-04-09 07:32:00,9.0,7.0,30.23,North,-999,5.0,-999.0,91,-99.99,,,-99.99,,2013-04-09 13:32:00,
2013-04-09 07:42:00,9.0,6.0,30.20,West,260,5.0,-999.0,90,-99.99,,,-99.99,,2013-04-09 13:42:00,
2013-04-09 07:52:00,9.0,7.0,30.21,North,-999,4.0,-999.0,91,-99.99,,,-99.99,,2013-04-09 13:52:00,
2013-04-09 08:03:00,9.0,7.0,30.21,West,259,5.0,-999.0,90,-99.99,,,-99.99,,2013-04-09 14:03:00,
2013-04-09 08:12:00,9.0,7.0,30.19,South,173,4.0,-999.0,91,-99.99,,,-99.99,,2013-04-09 14:12:00,
2013-04-09 08:22:00,9.0,7.0,30.14,WSW,245,6.0,-999.0,90,-99.99,,,-99.99,,2013-04-09 14:22:00,
2013-04-09 08:32:00,9.0,7.0,30.20,NNW,332,4.0,-999.0,91,-99.99,,,-99.99,,2013-04-09 14:32:00,
2013-04-09 08:42:00,10.0,7.0,30.21,West,260,4.0,-999.0,90,-99.99,,,-99.99,,2013-04-09 14:42:00,
2013-04-09 08:52:00,10.0,7.0,30.21,South,174,4.0,-999.0,90,-99.99,,,-99.99,,2013-04-09 14:52:00,
2013-04-09 09:02:00,10.0,8.0,30.22,South,173,5.0,-999.0,90,-99.99,,,-99.99,,2013-04-09 15:02:00,
2013-04-09 09:12:00,10.0,8.0,30.21,East,88,5.0,-999.0,90,-99.99,,,-99.99,,2013-04-09 15:12:00,
2013-04-09 09:22:00,10.0,8.0,30.23,North,-999,4.0,-999.0,90,-99.99,,,-99.99,,2013-04-09 15:22:00,
2013-04-09 09:33:00,10.0,8.0,30.26,West,259,4.0,-999.0,90,-99.99,,,-99.99,,2013-04-09 15:33:00,
2013-04-09 09:43:00,10.0,8.0,30.21,SSW,209,4.0,-999.0,89,-99.99,,,-99.99,,2013-04-09 15:43:00,
2013-04-09 09:53:00,11.0,8.0,30.22,South,179,4.0,-999.0,89,-99.99,,,-99.99,,2013-04-09 15:53:00,
2013-04-09 10:03:00,11.0,8.0,30.22,South,179,4.0,-999.0,89,-99.99,,,-99.99,,2013-04-09 16:03:00,
2013-04-09 10:13:00,11.0,8.0,30.20,SSW,192,5.0,-999.0,89,-99.99,,,-99.99,,2013-04-09 16:13:00,
2013-04-09 10:23:00,11.0,8.0,30.22,South,174,5.0,-999.0,89,-99.99,,,-99.99,,2013-04-09 16:23:00,
2013-04-09 10:33:00,11.0,8.0,30.22,South,174,5.0,-999.0,88,-99.99,,,-99.99,,2013-04-09 16:33:00,
2013-04-09 10:42:00,11.0,9.0,30.25,West,259,4.0,-999.0,88,-99.99,,,-99.99,,2013-04-09 16:42:00,
2013-04-09 10:53:00,11.0,9.0,30.24,South,174,5.0,-999.0,88,-99.99,,,-99.99,,2013-04-09 16:53:00,
2013-04-09 11:02:00,11.0,9.0,30.24,South,174,5.0,-999.0,88,-99.99,,,-99.99,,2013-04-09 17:02:00,
2013-04-09 11:13:00,12.0,9.0,30.26,North,-999,5.0,-999.0,87,-99.99,,,-99.99,,2013-04-09 17:13:00,
2013-04-09 11:23:00,12.0,9.0,30.25,North,-999,4.0,-999.0,87,-99.99,,,-99.99,,2013-04-09 17:23:00,
2013-04-09 11:32:00,12.0,9.0,30.28,WSW,258,4.0,-999.0,86,-99.99,,,-99.99,,2013-04-09 17:32:00,
2013-04-09 11:42:00,12.0,9.0,30.24,North,-999,5.0,-999.0,86,-99.99,,,-99.99,,2013-04-09 17:42:00,
2013-04-09 11:53:00,12.0,8.0,30.26,North,-999,5.0,-999.0,85,-99.99,,,-99.99,,2013-04-09 17:53:00,
2013-04-09 12:02:00,12.0,9.0,30.25,North,-999,5.0,-999.0,85,-99.99,,,-99.99,,2013-04-09 18:02:00,
2013-04-09 12:13:00,13.0,9.0,30.24,North,-999,5.0,-999.0,85,-99.99,,,-99.99,,2013-04-09 18:13:00,
2013-04-09 12:22:00,13.0,9.0,30.25,NNW,330,5.0,-999.0,84,-99.99,,,-99.99,,2013-04-09 18:22:00,
2013-04-09 12:33:00,13.0,9.0,30.24,WSW,244,4.0,-999.0,84,-99.99,,,-99.99,,2013-04-09 18:33:00,
2013-04-09 12:43:00,13.0,9.0,30.25,North,-999,5.0,-999.0,83,-99.99,,,-99.99,,2013-04-09 18:43:00,
2013-04-09 12:52:00,14.0,9.0,30.25,West,260,4.0,-999.0,83,-99.99,,,-99.99,,2013-04-09 18:52:00,
2013-04-09 13:03:00,14.0,9.0,30.25,West,260,4.0,-999.0,83,-99.99,,,-99.99,,2013-04-09 19:03:00,
2013-04-09 13:12:00,14.0,9.0,30.25,West,260,4.0,-999.0,83,-99.99,,,-99.99,,2013-04-09 19:12:00,
2013-04-09 13:22:00,14.0,9.0,30.25,North,-999,6.0,-999.0,83,-99.99,,,-99.99,,2013-04-09 19:22:00,
2013-04-09 13:52:00,13.0,9.0,30.21,NNW,337,5.0,-999.0,83,-99.99,,,-99.99,,2013-04-09 19:52:00,
2013-04-09 14:02:00,13.0,10.0,30.24,West,260,4.0,-999.0,84,-99.99,,,-99.99,,2013-04-09 20:02:00,
2013-04-09 14:12:00,13.0,10.0,30.21,North,-999,6.0,-999.0,84,-99.99,,,-99.99,,2013-04-09 20:12:00,
2013-04-09 14:22:00,14.0,10.0,30.21,West,273,5.0,-999.0,85,-99.99,,,-99.99,,2013-04-09 20:22:00,
2013-04-09 14:33:00,14.0,10.0,30.19,North,-999,6.0,-999.0,85,-99.99,,,-99.99,,2013-04-09 20:33:00,
2013-04-09 14:43:00,14.0,10.0,30.19,North,-999,5.0,-999.0,85,-99.99,,,-99.99,,2013-04-09 20:43:00,
2013-04-09 14:52:00,13.0,10.0,30.20,West,259,6.0,-999.0,85,-99.99,,,-99.99,,2013-04-09 20:52:00,
2013-04-09 15:02:00,14.0,11.0,30.19,North,-999,6.0,-999.0,86,-99.99,,,-99.99,,2013-04-09 21:02:00,
2013-04-09 15:13:00,14.0,11.0,30.19,South,173,6.0,-999.0,87,-99.99,,,-99.99,,2013-04-09 21:13:00,
2013-04-09 15:22:00,14.0,11.0,30.19,South,173,6.0,-999.0,87,-99.99,,,-99.99,,2013-04-09 21:22:00,
2013-04-09 15:33:00,14.0,11.0,30.19,North,-999,5.0,-999.0,86,-99.99,,,-99.99,,2013-04-09 21:33:00,
2013-04-09 15:42:00,14.0,11.0,30.19,North,-999,5.0,-999.0,86,-99.99,,,-99.99,,2013-04-09 21:42:00,
2013-04-09 15:52:00,14.0,11.0,30.17,North,-999,7.0,-999.0,86,-99.99,,,-99.99,,2013-04-09 21:52:00,
2013-04-09 16:03:00,14.0,11.0,30.17,North,-999,7.0,-999.0,86,-99.99,,,-99.99,,2013-04-09 22:03:00,
2013-04-09 16:13:00,14.0,11.0,30.19,North,-999,5.0,-999.0,85,-99.99,,,-99.99,,2013-04-09 22:13:00,
2013-04-09 16:23:00,14.0,11.0,30.19,WSW,258,6.0,-999.0,86,-99.99,,,-99.99,,2013-04-09 22:23:00,
2013-04-09 16:33:00,14.0,11.0,30.20,North,-999,5.0,-999.0,86,-99.99,,,-99.99,,2013-04-09 22:33:00,
2013-04-09 16:42:00,14.0,11.0,30.17,North,-999,6.0,-999.0,87,-99.99,,,-99.99,,2013-04-09 22:42:00,
2013-04-09 16:53:00,15.0,11.0,30.20,North,-999,5.0,-999.0,87,-99.99,,,-99.99,,2013-04-09 22:53:00,
2013-04-09 17:03:00,14.0,11.0,30.20,North,-999,5.0,-999.0,88,-99.99,,,-99.99,,2013-04-09 23:03:00,
2013-04-09 17:12:00,15.0,12.0,30.20,North,-999,5.0,-999.0,89,-99.99,,,-99.99,,2013-04-09 23:12:00,
2013-04-09 17:22:00,14.0,12.0,30.18,North,-999,5.0,-999.0,90,-99.99,,,-99.99,,2013-04-09 23:22:00,
2013-04-09 17:32:00,15.0,12.0,30.17,NNW,343,6.0,-999.0,90,-99.99,,,-99.99,,2013-04-09 23:32:00,
2013-04-09 17:42:00,15.0,12.0,30.20,NNW,343,5.0,-999.0,90,-99.99,,,-99.99,,2013-04-09 23:42:00,
2013-04-09 17:52:00,14.0,12.0,30.23,NW,325,5.0,-999.0,91,-99.99,,,-99.99,,2013-04-09 23:52:00,
2013-04-09 18:03:00,15.0,12.0,30.23,NNW,336,4.0,-999.0,91,-99.99,,,-99.99,,2013-04-10 00:03:00,
2013-04-09 18:12:00,15.0,12.0,30.23,NNW,336,4.0,-999.0,91,-99.99,,,-99.99,,2013-04-10 00:12:00,
2013-04-09 18:23:00,15.0,12.0,30.20,NNW,341,6.0,-999.0,91,-99.99,,,-99.99,,2013-04-10 00:23:00,
2013-04-09 18:33:00,15.0,13.0,30.22,NNW,343,5.0,-999.0,91,-99.99,,,-99.99,,2013-04-10 00:33:00,
2013-04-09 18:42:00,15.0,13.0,30.23,North,-999,4.0,-999.0,91,-99.99,,,-99.99,,2013-04-10 00:42:00,
2013-04-09 18:52:00,15.0,13.0,30.21,NNW,334,5.0,-999.0,91,-99.99,,,-99.99,,2013-04-10 00:52:00,
2013-04-09 19:02:00,15.0,13.0,30.23,NW,326,4.0,-999.0,91,-99.99,,,-99.99,,2013-04-10 01:02:00,
2013-04-09 19:12:00,15.0,13.0,30.23,NNW,338,4.0,-999.0,92,-99.99,,,-99.99,,2013-04-10 01:12:00,
2013-04-09 19:23:00,15.0,13.0,30.22,NW,323,4.0,-999.0,92,-99.99,,,-99.99,,2013-04-10 01:23:00,
2013-04-09 19:32:00,15.0,13.0,30.21,NW,316,5.0,-999.0,93,-99.99,,,-99.99,,2013-04-10 01:32:00,
2013-04-09 19:42:00,15.0,13.0,30.23,NNW,333,5.0,-999.0,94,-99.99,,,-99.99,,2013-04-10 01:42:00,
2013-04-09 19:52:00,15.0,13.0,30.21,NNW,331,4.0,-999.0,94,-99.99,,,-99.99,,2013-04-10 01:52:00,
2013-04-09 20:02:00,15.0,13.0,30.19,NNW,333,5.0,-999.0,94,-99.99,,,-99.99,,2013-04-10 02:02:00,
2013-04-09 20:12:00,15.0,14.0,30.22,NW,325,4.0,-999.0,94,-99.99,,,-99.99,,2013-04-10 02:12:00,
2013-04-09 20:22:00,15.0,14.0,30.25,NW,321,4.0,-999.0,95,-99.99,,,-99.99,,2013-04-10 02:22:00,
2013-04-09 20:32:00,15.0,14.0,30.24,NW,317,5.0,-999.0,95,-99.99,,,-99.99,,2013-04-10 02:32:00,
2013-04-09 20:43:00,15.0,14.0,30.25,NW,314,5.0,-999.0,95,-99.99,,,-99.99,,2013-04-10 02:43:00,
2013-04-09 20:52:00,15.0,14.0,30.25,NW,309,5.0,-999.0,94,-99.99,,,-99.99,,2013-04-10 02:52:00,
2013-04-09 21:03:00,15.0,14.0,30.28,NW,319,3.0,-999.0,94,-99.99,,,-99.99,,2013-04-10 03:03:00,
2013-04-09 21:12:00,16.0,14.0,30.27,NW,315,4.0,-999.0,94,-99.99,,,-99.99,,2013-04-10 03:12:00,
2013-04-09 21:22:00,16.0,14.0,30.27,NW,313,4.0,-999.0,94,-99.99,,,-99.99,,2013-04-10 03:22:00,
2013-04-09 21:33:00,16.0,14.0,30.27,NW,313,4.0,-999.0,94,-99.99,,,-99.99,,2013-04-10 03:33:00,
2013-04-09 21:43:00,16.0,15.0,30.28,NW,308,4.0,-999.0,95,-99.99,,,-99.99,,2013-04-10 03:43:00,
2013-04-09 21:52:00,16.0,15.0,30.28,NW,323,4.0,-999.0,95,-99.99,,,-99.99,,2013-04-10 03:52:00,
2013-04-09 22:03:00,16.0,15.0,30.28,NW,323,4.0,-999.0,95,-99.99,,,-99.99,,2013-04-10 04:03:00,
2013-04-09 22:13:00,16.0,15.0,30.20,NNW,340,7.0,-999.0,96,-99.99,,,-99.99,,2013-04-10 04:13:00,
2013-04-09 22:23:00,16.0,15.0,30.24,NNW,330,5.0,-999.0,96,-99.99,,,-99.99,,2013-04-10 04:23:00,
2013-04-09 22:33:00,16.0,15.0,30.24,NNW,329,5.0,-999.0,96,-99.99,,,-99.99,,2013-04-10 04:33:00,
2013-04-09 22:43:00,17.0,16.0,30.21,NNW,340,5.0,-999.0,96,-99.99,,,-99.99,,2013-04-10 04:43:00,
2013-04-09 22:52:00,17.0,16.0,30.20,NNW,330,6.0,-999.0,96,-99.99,,,-99.99,,2013-04-10 04:52:00,
2013-04-09 23:02:00,17.0,16.0,30.17,NNW,344,6.0,-999.0,96,-99.99,,,-99.99,,2013-04-10 05:02:00,
2013-04-09 23:13:00,17.0,16.0,30.19,NNW,342,5.0,-999.0,97,-99.99,,,-99.99,,2013-04-10 05:13:00,
2013-04-09 23:23:00,17.0,16.0,30.21,NNW,328,4.0,-999.0,97,-99.99,,,-99.99,,2013-04-10 05:23:00,
2013-04-09 23:33:00,17.0,16.0,30.17,NNW,343,5.0,-999.0,97,-99.99,,,-99.99,,2013-04-10 05:33:00,
2013-04-09 23:42:00,17.0,16.0,30.16,NNW,341,6.0,-999.0,97,-99.99,,,-99.99,,2013-04-10 05:42:00,
2013-04-09 23:53:00,17.0,16.0,30.17,NNW,336,5.0,-999.0,97,-99.99,,,-99.99,,2013-04-10 05:53:00,